• In Österreich
  • Länderverzeichnis
  • Für 7 Tage
  • Wassertemperatur
  • Satellitenkarten
  • Wetterkarte
  • News
  • Widgets
  • user-avatar
    Anmelden

    Stündliche Wetter Chiredzi

    Heute, 14 August, Dienstag

    Zeit Temperatur Niederschläge Wind Luftdruck Luftfeuchtigkeit
    00:00 +24°C° 0 mm 2 m/S 730 mmHg 44%
    01:00 +23°C° 0 mm 2 m/S 730 mmHg 48%
    02:00 +21°C° 0 mm 2 m/S 730 mmHg 51%
    03:00 +21°C° 0 mm 2 m/S 730 mmHg 51%
    04:00 +21°C° 0 mm 1 m/S 730 mmHg 52%
    05:00 +21°C° 0 mm 1 m/S 730 mmHg 53%
    06:00 +22°C° 0 mm 1 m/S 730 mmHg 48%
    07:00 +23°C° 0 mm 1 m/S 731 mmHg 44%
    08:00 +25°C° 0 mm 1 m/S 731 mmHg 38%
    09:00 +28°C° 0 mm 2 m/S 731 mmHg 32%
    10:00 +30°C° 0 mm 2 m/S 732 mmHg 27%
    11:00 +34°C° 0 mm 2 m/S 732 mmHg 21%
    12:00 +35°C° 0 mm 2 m/S 731 mmHg 19%
    13:00 +35°C° 0 mm 1 m/S 730 mmHg 17%
    14:00 +35°C° 0 mm 1 m/S 730 mmHg 19%
    15:00 +34°C° 0 mm 1 m/S 730 mmHg 19%
    16:00 +33°C° 0 mm 1 m/S 730 mmHg 20%
    17:00 +34°C° 0 mm 2 m/S 730 mmHg 20%
    18:00 +31°C° 0 mm 2 m/S 730 mmHg 23%
    19:00 +29°C° 0 mm 2 m/S 730 mmHg 26%
    20:00 +27°C° 0 mm 2 m/S 730 mmHg 29%
    21:00 +27°C° 0 mm 2 m/S 730 mmHg 31%
    22:00 +26°C° 0 mm 2 m/S 730 mmHg 33%
    23:00 +25°C° 0 mm 2 m/S 731 mmHg 35%

    Morgen, 15 August, Mittwoch

    Zeit Temperatur Niederschläge Wind Luftdruck Luftfeuchtigkeit
    00:00 +24°C° 0 mm 2 m/S 731 mmHg 38%
    01:00 +24°C° 0 mm 2 m/S 730 mmHg 40%
    02:00 +23°C° 0 mm 2 m/S 730 mmHg 43%
    03:00 +22°C° 0 mm 1 m/S 730 mmHg 44%
    04:00 +22°C° 0 mm 1 m/S 730 mmHg 46%
    05:00 +21°C° 0 mm 1 m/S 730 mmHg 47%
    06:00 +23°C° 0 mm 1 m/S 731 mmHg 44%
    07:00 +24°C° 0 mm 1 m/S 731 mmHg 41%
    08:00 +25°C° 0 mm 1 m/S 731 mmHg 38%
    09:00 +28°C° 0 mm 1 m/S 732 mmHg 32%
    10:00 +31°C° 0 mm 1 m/S 732 mmHg 27%
    11:00 +34°C° 0 mm 1 m/S 732 mmHg 21%
    12:00 +35°C° 0 mm 1 m/S 731 mmHg 20%
    13:00 +36°C° 0 mm 1 m/S 730 mmHg 18%
    14:00 +36°C° 0 mm 1 m/S 730 mmHg 16%
    15:00 +36°C° 0 mm 1 m/S 729 mmHg 17%
    16:00 +36°C° 0 mm 2 m/S 729 mmHg 17%
    17:00 +35°C° 0 mm 2 m/S 729 mmHg 18%
    18:00 +32°C° 0 mm 2 m/S 729 mmHg 20%
    19:00 +30°C° 0 mm 2 m/S 729 mmHg 23%
    20:00 +29°C° 0 mm 3 m/S 730 mmHg 26%
    21:00 +28°C° 0 mm 3 m/S 730 mmHg 29%
    22:00 +27°C° 0 mm 3 m/S 730 mmHg 33%
    23:00 +26°C° 0 mm 3 m/S 730 mmHg 37%

    übermorgen, 16 August, Donnerstag

    Zeit Temperatur Niederschläge Wind Luftdruck Luftfeuchtigkeit
    00:00 +25°C° 0 mm 2 m/S 730 mmHg 40%
    01:00 +24°C° 0 mm 2 m/S 730 mmHg 44%
    02:00 +23°C° 0 mm 1 m/S 730 mmHg 48%
    03:00 +23°C° 0 mm 1 m/S 730 mmHg 49%
    04:00 +22°C° 0 mm 1 m/S 729 mmHg 51%
    05:00 +22°C° 0 mm 1 m/S 729 mmHg 52%
    06:00 +23°C° 0 mm 1 m/S 730 mmHg 47%
    07:00 +25°C° 0 mm 1 m/S 730 mmHg 42%
    08:00 +26°C° 0 mm 1 m/S 731 mmHg 37%
    09:00 +29°C° 0 mm 1 m/S 731 mmHg 31%
    10:00 +32°C° 0 mm 1 m/S 731 mmHg 25%
    11:00 +35°C° 0 mm 1 m/S 731 mmHg 19%
    12:00 +37°C° 0 mm 2 m/S 730 mmHg 17%
    13:00 +37°C° 0 mm 2 m/S 729 mmHg 16%
    14:00 +38°C° 0 mm 2 m/S 728 mmHg 15%
    15:00 +37°C° 0 mm 2 m/S 728 mmHg 15%
    16:00 +37°C° 0 mm 2 m/S 728 mmHg 16%
    17:00 +36°C° 0 mm 2 m/S 728 mmHg 16%
    18:00 +34°C° 0 mm 3 m/S 728 mmHg 19%
    19:00 +31°C° 0 mm 3 m/S 728 mmHg 21%
    20:00 +29°C° 0 mm 3 m/S 729 mmHg 23%
    21:00 +28°C° 0 mm 3 m/S 729 mmHg 27%
    22:00 +27°C° 0 mm 3 m/S 729 mmHg 30%
    23:00 +26°C° 0 mm 3 m/S 729 mmHg 34%

    17 August, Freitag

    Zeit Temperatur Niederschläge Wind Luftdruck Luftfeuchtigkeit
    00:00 +25°C° 0 mm 3 m/S 729 mmHg 38%
    01:00 +24°C° 0 mm 2 m/S 728 mmHg 43%
    02:00 +23°C° 0 mm 2 m/S 728 mmHg 48%
    03:00 +23°C° 0 mm 2 m/S 728 mmHg 49%
    04:00 +22°C° 0 mm 1 m/S 728 mmHg 51%
    05:00 +22°C° 0 mm 1 m/S 728 mmHg 52%
    06:00 +23°C° 0 mm 1 m/S 728 mmHg 46%
    07:00 +25°C° 0 mm 1 m/S 729 mmHg 41%
    08:00 +26°C° 0 mm 1 m/S 729 mmHg 35%
    09:00 +29°C° 0 mm 1 m/S 729 mmHg 29%
    10:00 +32°C° 0 mm 2 m/S 729 mmHg 22%
    11:00 +37°C° 0 mm 2 m/S 729 mmHg 16%
    12:00 +37°C° 0 mm 1 m/S 728 mmHg 14%
    13:00 +39°C° 0 mm 1 m/S 727 mmHg 13%
    14:00 +40°C° 0 mm 1 m/S 727 mmHg 11%
    15:00 +39°C° 0 mm 1 m/S 726 mmHg 12%
    16:00 +37°C° 0 mm 1 m/S 726 mmHg 12%
    17:00 +36°C° 0 mm 1 m/S 726 mmHg 13%
    18:00 +35°C° 0 mm 2 m/S 726 mmHg 15%
    19:00 +32°C° 0 mm 2 m/S 727 mmHg 16%
    20:00 +30°C° 0 mm 2 m/S 727 mmHg 18%
    21:00 +29°C° 0 mm 2 m/S 727 mmHg 20%
    22:00 +28°C° 0 mm 2 m/S 727 mmHg 23%
    23:00 +27°C° 0 mm 2 m/S 728 mmHg 25%

    18 August, Samstag

    Zeit Temperatur Niederschläge Wind Luftdruck Luftfeuchtigkeit
    00:00 +26°C° 0 mm 2 m/S 727 mmHg 27%
    01:00 +25°C° 0 mm 2 m/S 727 mmHg 30%
    02:00 +25°C° 0 mm 1 m/S 727 mmHg 32%
    03:00 +24°C° 0 mm 3 m/S 728 mmHg 43%
    04:00 +22°C° 0 mm 4 m/S 728 mmHg 53%
    05:00 +21°C° 0 mm 6 m/S 729 mmHg 63%
    06:00 +21°C° 0 mm 6 m/S 730 mmHg 66%
    07:00 +21°C° 0 mm 6 m/S 731 mmHg 69%
    08:00 +21°C° 0 mm 6 m/S 732 mmHg 72%
    09:00 +21°C° 0,1 mm 6 m/S 732 mmHg 72%
    10:00 +21°C° 0,1 mm 5 m/S 733 mmHg 72%
    11:00 +21°C° 0,1 mm 5 m/S 733 mmHg 72%
    12:00 +21°C° 0,1 mm 5 m/S 732 mmHg 71%
    13:00 +21°C° 0,1 mm 5 m/S 732 mmHg 70%
    14:00 +21°C° 0,1 mm 5 m/S 731 mmHg 69%
    15:00 +21°C° 0 mm 4 m/S 731 mmHg 68%
    16:00 +22°C° 0 mm 4 m/S 731 mmHg 66%
    17:00 +22°C° 0 mm 4 m/S 731 mmHg 65%
    18:00 +21°C° 0 mm 3 m/S 732 mmHg 66%
    19:00 +21°C° 0 mm 3 m/S 732 mmHg 67%
    20:00 +21°C° 0 mm 2 m/S 732 mmHg 68%
    21:00 +20°C° 0 mm 3 m/S 732 mmHg 69%
    22:00 +20°C° 0 mm 3 m/S 732 mmHg 69%
    23:00 +20°C° 0 mm 3 m/S 732 mmHg 70%

    19 August, Sonntag

    Zeit Temperatur Niederschläge Wind Luftdruck Luftfeuchtigkeit
    00:00 +20°C° 0 mm 3 m/S 732 mmHg 72%
    01:00 +20°C° 0 mm 3 m/S 731 mmHg 74%
    02:00 +19°C° 0 mm 2 m/S 731 mmHg 77%
    03:00 +19°C° 0 mm 2 m/S 731 mmHg 78%
    04:00 +19°C° 0 mm 2 m/S 731 mmHg 80%
    05:00 +19°C° 0 mm 2 m/S 731 mmHg 81%
    06:00 +19°C° 0 mm 2 m/S 731 mmHg 81%
    07:00 +20°C° 0 mm 1 m/S 732 mmHg 80%
    08:00 +20°C° 0 mm 1 m/S 732 mmHg 80%
    09:00 +22°C° 0 mm 1 m/S 732 mmHg 73%
    10:00 +24°C° 0 mm 1 m/S 731 mmHg 67%
    11:00 +25°C° 0 mm 1 m/S 731 mmHg 60%
    12:00 +27°C° 0 mm 1 m/S 731 mmHg 55%
    13:00 +28°C° 0 mm 1 m/S 730 mmHg 50%
    14:00 +29°C° 0 mm 1 m/S 729 mmHg 45%
    15:00 +29°C° 0 mm 1 m/S 729 mmHg 45%
    16:00 +29°C° 0 mm 1 m/S 729 mmHg 44%
    17:00 +29°C° 0 mm 2 m/S 729 mmHg 44%
    18:00 +27°C° 0 mm 1 m/S 729 mmHg 48%
    19:00 +26°C° 0 mm 1 m/S 730 mmHg 52%
    20:00 +25°C° 0 mm 1 m/S 730 mmHg 57%
    21:00 +24°C° 0 mm 1 m/S 730 mmHg 59%
    22:00 +24°C° 0 mm 1 m/S 730 mmHg 62%
    23:00 +23°C° 0 mm 1 m/S 730 mmHg 65%
    Mehr zeigen